Location: Malanoce
(44.2500°N, 7.4667°E)
Time: 13:34:41
(UTC+00:00)

COSMO-SKYMED 1 - Pass Details

Date: 17 November 2025
Orbit: 579 x 581 km, 97.9° (Epoch: 06 December)

Event Time Altitude Azimuth Distance (km) Brightness Sun altitude
Exits shadow 17:21:20 18° 42° (NE) 1,443 4.0 -14.3°
Maximum altitude 17:23:48 34° 97° (E) 963 3.0 -14.7°
Drops below altitude 10° 17:27:32 10° 163° (SSE) 1,889 5.0 -15.4°
Sets 17:29:49 0° 173° (S) 2,782 6.0 -15.8°
